User: anonymous   Login
Location: State Camp
(41.2367°N, 77.7828°W)
Time: 12:41:54
(UTC-04:00)
Language:

Cosmos 1674 Rocket - Orbit

View from above orbital plane
View from above orbital plane
View from above satellite
View from above satellite

Ground track
Ground track

The orbit data is extracted from the following two-line orbital elements,

1 15945U 85069B   17206.18336964 +.00000095 +00000-0 +84848-5 0  9999
2 15945 082.5281 097.4440 0020418 152.7808 207.4483 14.83930994705589
Epoch (UTC): 25 July 2017 04:24:03
Eccentricity: 0.0020418
inclination: 82.5281°
perigee height: 602 km
apogee height: 631 km
right ascension of ascending node: 97.4440°
argument of perigee: 152.7808°
revolutions per day: 14.83930994
mean anomaly at epoch: 207.4483°
orbit number at epoch: 70558

The dashed part of the orbit path shows where the satellite is in the earth's shadow,  

DLR